Time,TemperatureF,DewpointF,PressureIn,WindDirection,WindDirectionDegrees,WindSpeedMPH,WindSpeedGustMPH,Humidity,HourlyPrecipIn,Conditions,Clouds,dailyrainin,SoftwareType,DateUTC
2013-03-16 00:01:00,62.6,48.1,29.40,SW,232,4.0,9.0,59,0.00,,,0.00,Wunderground v.1.15,2013-03-16 05:01:00,
2013-03-16 00:07:00,62.5,48.0,29.40,WSW,242,10.0,11.0,59,0.00,,,0.00,Wunderground v.1.15,2013-03-16 05:07:00,
2013-03-16 00:12:00,62.5,48.0,29.40,SSE,162,9.0,10.0,59,0.00,,,0.00,Wunderground v.1.15,2013-03-16 05:12:00,
2013-03-16 00:18:00,62.5,48.0,29.40,South,174,3.0,10.0,59,0.00,,,0.00,Wunderground v.1.15,2013-03-16 05:18:00,
2013-03-16 00:24:00,62.4,47.9,29.39,SW,225,11.0,15.0,59,0.00,,,0.00,Wunderground v.1.15,2013-03-16 05:24:00,
2013-03-16 00:29:00,62.5,47.5,29.39,SSW,211,13.0,15.0,58,0.00,,,0.00,Wunderground v.1.15,2013-03-16 05:29:00,
2013-03-16 00:35:00,62.5,47.5,29.39,South,174,7.0,8.0,58,0.00,,,0.00,Wunderground v.1.15,2013-03-16 05:35:00,
2013-03-16 00:40:00,62.6,47.6,29.39,SW,214,6.0,8.0,58,0.00,,,0.00,Wunderground v.1.15,2013-03-16 05:40:00,
2013-03-16 00:45:00,62.5,47.5,29.39,WSW,239,5.0,18.0,58,0.00,,,0.00,Wunderground v.1.15,2013-03-16 05:45:00,
2013-03-16 00:52:00,62.6,47.1,29.39,SW,216,15.0,15.0,57,0.00,,,0.00,Wunderground v.1.15,2013-03-16 05:52:00,
2013-03-16 00:58:00,62.5,47.1,29.38,SW,222,10.0,15.0,57,0.00,,,0.00,Wunderground v.1.15,2013-03-16 05:58:00,
2013-03-16 01:03:00,62.7,47.2,29.38,SSW,203,4.0,16.0,57,0.00,,,0.00,Wunderground v.1.15,2013-03-16 06:03:00,
2013-03-16 01:09:00,62.8,46.9,29.38,SW,225,10.0,16.0,56,0.00,,,0.00,Wunderground v.1.15,2013-03-16 06:09:00,
2013-03-16 01:15:00,62.9,47.0,29.38,SSW,195,9.0,12.0,56,0.00,,,0.00,Wunderground v.1.15,2013-03-16 06:15:00,
2013-03-16 01:20:00,63.1,46.7,29.38,SSW,197,5.0,9.0,55,0.00,,,0.00,Wunderground v.1.15,2013-03-16 06:20:00,
2013-03-16 01:27:00,63.2,46.8,29.38,SW,231,16.0,16.0,55,0.00,,,0.00,Wunderground v.1.15,2013-03-16 06:27:00,
2013-03-16 01:32:00,63.3,46.4,29.38,SW,226,6.0,9.0,54,0.00,,,0.00,Wunderground v.1.15,2013-03-16 06:32:00,
2013-03-16 01:37:00,63.4,46.5,29.38,South,191,9.0,12.0,54,0.00,,,0.00,Wunderground v.1.15,2013-03-16 06:37:00,
2013-03-16 01:43:00,63.4,46.5,29.38,SW,214,9.0,10.0,54,0.00,,,0.00,Wunderground v.1.15,2013-03-16 06:43:00,
2013-03-16 01:48:00,63.5,46.1,29.38,SW,217,14.0,14.0,53,0.00,,,0.00,Wunderground v.1.15,2013-03-16 06:48:00,
2013-03-16 01:54:00,63.7,46.2,29.38,SSW,205,20.0,20.0,53,0.00,,,0.00,Wunderground v.1.15,2013-03-16 06:54:00,
2013-03-16 02:00:00,63.9,46.4,29.38,SSW,203,4.0,11.0,53,0.00,,,0.00,Wunderground v.1.15,2013-03-16 07:00:00,
2013-03-16 02:05:00,63.8,46.3,29.38,SSW,207,13.0,17.0,53,0.00,,,0.00,Wunderground v.1.15,2013-03-16 07:05:00,
2013-03-16 02:10:00,63.8,46.3,29.38,WSW,249,12.0,12.0,53,0.00,,,0.00,Wunderground v.1.15,2013-03-16 07:10:00,
2013-03-16 02:15:00,63.8,46.3,29.38,SW,214,14.0,24.0,53,0.00,,,0.00,Wunderground v.1.15,2013-03-16 07:15:00,
2013-03-16 02:20:00,63.7,46.2,29.38,SSE,166,6.0,12.0,53,0.00,,,0.00,Wunderground v.1.15,2013-03-16 07:20:00,
2013-03-16 02:25:00,63.8,45.8,29.38,SW,214,11.0,25.0,52,0.00,,,0.00,Wunderground v.1.15,2013-03-16 07:25:00,
2013-03-16 02:30:00,63.7,45.7,29.38,SW,221,9.0,12.0,52,0.00,,,0.00,Wunderground v.1.15,2013-03-16 07:30:00,
2013-03-16 02:35:00,63.5,46.1,29.38,SSW,198,7.0,18.0,53,0.00,,,0.00,Wunderground v.1.15,2013-03-16 07:35:00,
2013-03-16 02:40:00,63.5,46.1,29.38,SSW,208,11.0,15.0,53,0.00,,,0.00,Wunderground v.1.15,2013-03-16 07:40:00,
2013-03-16 02:45:00,63.4,46.0,29.38,SSW,212,11.0,22.0,53,0.00,,,0.00,Wunderground v.1.15,2013-03-16 07:45:00,
2013-03-16 02:50:00,63.4,46.0,29.38,SSW,203,13.0,14.0,53,0.00,,,0.00,Wunderground v.1.15,2013-03-16 07:50:00,
2013-03-16 02:55:00,63.3,45.9,29.38,SW,216,17.0,24.0,53,0.00,,,0.00,Wunderground v.1.15,2013-03-16 07:55:00,
2013-03-16 03:00:00,63.2,45.8,29.38,SW,232,9.0,12.0,53,0.00,,,0.00,Wunderground v.1.15,2013-03-16 08:00:00,
2013-03-16 03:05:00,63.1,45.7,29.38,SW,231,8.0,22.0,53,0.00,,,0.00,Wunderground v.1.15,2013-03-16 08:05:00,
2013-03-16 03:10:00,62.8,45.4,29.37,SW,216,9.0,13.0,53,0.00,,,0.00,Wunderground v.1.15,2013-03-16 08:10:00,
2013-03-16 03:15:00,62.7,45.3,29.37,West,273,9.0,21.0,53,0.00,,,0.00,Wunderground v.1.15,2013-03-16 08:15:00,
2013-03-16 03:20:00,62.7,45.3,29.38,WSW,252,10.0,11.0,53,0.00,,,0.00,Wunderground v.1.15,2013-03-16 08:20:00,
2013-03-16 03:25:00,62.5,45.6,29.37,WSW,239,9.0,18.0,54,0.00,,,0.00,Wunderground v.1.15,2013-03-16 08:25:00,
2013-03-16 03:30:00,62.4,45.5,29.37,SW,217,16.0,17.0,54,0.00,,,0.00,Wunderground v.1.15,2013-03-16 08:30:00,
2013-03-16 03:35:00,62.3,45.4,29.37,SSW,201,9.0,23.0,54,0.00,,,0.00,Wunderground v.1.15,2013-03-16 08:35:00,
2013-03-16 03:40:00,62.2,45.3,29.37,WSW,240,8.0,11.0,54,0.00,,,0.00,Wunderground v.1.15,2013-03-16 08:40:00,
2013-03-16 03:45:00,62.0,45.6,29.37,SSW,212,7.0,18.0,55,0.00,,,0.00,Wunderground v.1.15,2013-03-16 08:45:00,
2013-03-16 03:50:00,61.6,45.3,29.37,West,271,12.0,12.0,55,0.00,,,0.00,Wunderground v.1.15,2013-03-16 08:50:00,
2013-03-16 03:55:00,61.6,45.3,29.37,SW,235,12.0,20.0,55,0.00,,,0.00,Wunderground v.1.15,2013-03-16 08:55:00,
2013-03-16 04:00:00,61.5,45.2,29.37,SSW,193,9.0,10.0,55,0.00,,,0.00,Wunderground v.1.15,2013-03-16 09:00:00,
2013-03-16 04:05:00,61.5,45.2,29.36,SW,229,10.0,21.0,55,0.00,,,0.00,Wunderground v.1.15,2013-03-16 09:05:00,
2013-03-16 04:10:00,61.4,45.1,29.36,SW,231,12.0,14.0,55,0.00,,,0.00,Wunderground v.1.15,2013-03-16 09:10:00,
2013-03-16 04:15:00,61.4,45.6,29.36,South,191,4.0,19.0,56,0.00,,,0.00,Wunderground v.1.15,2013-03-16 09:15:00,
2013-03-16 04:20:00,61.3,45.0,29.36,South,187,12.0,17.0,55,0.00,,,0.00,Wunderground v.1.15,2013-03-16 09:20:00,
2013-03-16 04:25:00,61.2,45.4,29.36,SW,222,10.0,19.0,56,0.00,,,0.00,Wunderground v.1.15,2013-03-16 09:25:00,
2013-03-16 04:30:00,61.0,45.2,29.36,SW,233,11.0,14.0,56,0.00,,,0.00,Wunderground v.1.15,2013-03-16 09:30:00,
2013-03-16 04:35:00,61.0,45.2,29.36,South,186,15.0,16.0,56,0.00,,,0.00,Wunderground v.1.15,2013-03-16 09:35:00,
2013-03-16 04:40:00,60.9,45.1,29.36,SW,219,7.0,9.0,56,0.00,,,0.00,Wunderground v.1.15,2013-03-16 09:40:00,
2013-03-16 04:45:00,60.7,44.9,29.37,SW,222,14.0,15.0,56,0.00,,,0.00,Wunderground v.1.15,2013-03-16 09:45:00,
2013-03-16 04:50:00,60.7,45.4,29.37,SSW,201,4.0,8.0,57,0.00,,,0.00,Wunderground v.1.15,2013-03-16 09:50:00,
2013-03-16 04:55:00,60.6,45.3,29.36,WSW,248,11.0,17.0,57,0.00,,,0.00,Wunderground v.1.15,2013-03-16 09:55:00,
2013-03-16 05:00:00,60.5,45.2,29.37,SSW,195,5.0,10.0,57,0.00,,,0.00,Wunderground v.1.15,2013-03-16 10:00:00,
2013-03-16 05:05:00,60.4,45.1,29.37,SW,231,10.0,15.0,57,0.00,,,0.00,Wunderground v.1.15,2013-03-16 10:05:00,
2013-03-16 05:10:00,60.2,44.9,29.37,WNW,294,9.0,12.0,57,0.00,,,0.00,Wunderground v.1.15,2013-03-16 10:10:00,
2013-03-16 05:15:00,60.1,44.8,29.37,SE,142,9.0,18.0,57,0.00,,,0.00,Wunderground v.1.15,2013-03-16 10:15:00,
2013-03-16 05:20:00,59.9,45.1,29.37,SW,229,11.0,12.0,58,0.00,,,0.00,Wunderground v.1.15,2013-03-16 10:20:00,
2013-03-16 05:25:00,59.8,45.0,29.37,SSW,209,8.0,17.0,58,0.00,,,0.00,Wunderground v.1.15,2013-03-16 10:25:00,
2013-03-16 05:30:00,59.7,44.9,29.37,SSW,195,13.0,13.0,58,0.00,,,0.00,Wunderground v.1.15,2013-03-16 10:30:00,
2013-03-16 05:35:00,59.6,44.8,29.37,SW,216,7.0,18.0,58,0.00,,,0.00,Wunderground v.1.15,2013-03-16 10:35:00,
2013-03-16 05:40:00,59.5,44.7,29.37,SW,224,5.0,10.0,58,0.00,,,0.00,Wunderground v.1.15,2013-03-16 10:40:00,
2013-03-16 05:45:00,59.4,45.1,29.37,SSW,212,9.0,16.0,59,0.00,,,0.00,Wunderground v.1.15,2013-03-16 10:45:00,
2013-03-16 05:50:00,59.2,44.9,29.37,SW,233,6.0,8.0,59,0.00,,,0.00,Wunderground v.1.15,2013-03-16 10:50:00,
2013-03-16 05:55:00,59.1,44.8,29.38,SSW,212,7.0,14.0,59,0.00,,,0.00,Wunderground v.1.15,2013-03-16 10:55:00,
2013-03-16 06:00:00,59.1,44.8,29.38,SSW,205,16.0,16.0,59,0.00,,,0.00,Wunderground v.1.15,2013-03-16 11:00:00,
2013-03-16 06:05:00,59.0,44.7,29.37,SW,214,18.0,19.0,59,0.00,,,0.00,Wunderground v.1.15,2013-03-16 11:05:00,
2013-03-16 06:10:00,58.8,44.9,29.38,WSW,242,11.0,11.0,60,0.00,,,0.00,Wunderground v.1.15,2013-03-16 11:10:00,
2013-03-16 06:15:00,58.7,44.8,29.38,SSW,200,5.0,17.0,60,0.00,,,0.00,Wunderground v.1.15,2013-03-16 11:15:00,
2013-03-16 06:20:00,58.6,44.8,29.38,South,181,9.0,20.0,60,0.00,,,0.00,Wunderground v.1.15,2013-03-16 11:20:00,
2013-03-16 06:25:00,58.6,44.8,29.38,SW,216,8.0,20.0,60,0.00,,,0.00,Wunderground v.1.15,2013-03-16 11:25:00,
2013-03-16 06:30:00,58.5,44.7,29.38,SSW,208,12.0,12.0,60,0.00,,,0.00,Wunderground v.1.15,2013-03-16 11:30:00,
2013-03-16 06:35:00,58.5,44.7,29.39,WSW,238,15.0,18.0,60,0.00,,,0.00,Wunderground v.1.15,2013-03-16 11:35:00,
2013-03-16 06:40:00,58.4,44.6,29.39,SW,229,8.0,13.0,60,0.00,,,0.00,Wunderground v.1.15,2013-03-16 11:40:00,
2013-03-16 06:45:00,58.4,44.6,29.39,SSW,211,8.0,16.0,60,0.00,,,0.00,Wunderground v.1.15,2013-03-16 11:45:00,
2013-03-16 06:50:00,58.3,44.5,29.39,SW,219,15.0,18.0,60,0.00,,,0.00,Wunderground v.1.15,2013-03-16 11:50:00,
2013-03-16 06:55:00,58.2,44.8,29.39,SSW,205,8.0,18.0,61,0.00,,,0.00,Wunderground v.1.15,2013-03-16 11:55:00,
2013-03-16 07:00:00,58.0,44.6,29.39,SW,221,6.0,13.0,61,0.00,,,0.00,Wunderground v.1.15,2013-03-16 12:00:00,
2013-03-16 07:05:00,57.9,44.5,29.39,SSW,205,5.0,13.0,61,0.00,,,0.00,Wunderground v.1.15,2013-03-16 12:05:00,
2013-03-16 07:10:00,57.7,44.8,29.39,WSW,243,9.0,12.0,62,0.00,,,0.00,Wunderground v.1.15,2013-03-16 12:10:00,
2013-03-16 07:15:00,57.7,44.8,29.39,WSW,239,6.0,15.0,62,0.00,,,0.00,Wunderground v.1.15,2013-03-16 12:15:00,
2013-03-16 07:20:00,57.6,44.7,29.40,SSE,158,6.0,10.0,62,0.00,,,0.00,Wunderground v.1.15,2013-03-16 12:20:00,
2013-03-16 07:25:00,57.6,44.7,29.40,SW,235,13.0,19.0,62,0.00,,,0.00,Wunderground v.1.15,2013-03-16 12:25:00,
2013-03-16 07:30:00,57.6,44.7,29.40,SW,219,10.0,10.0,62,0.00,,,0.00,Wunderground v.1.15,2013-03-16 12:30:00,
2013-03-16 07:35:00,57.6,44.7,29.40,SSE,163,7.0,17.0,62,0.00,,,0.00,Wunderground v.1.15,2013-03-16 12:35:00,
2013-03-16 07:40:00,57.7,44.8,29.40,SSW,203,14.0,14.0,62,0.00,,,0.00,Wunderground v.1.15,2013-03-16 12:40:00,
2013-03-16 07:45:00,57.8,44.9,29.40,SW,228,10.0,20.0,62,0.00,,,0.00,Wunderground v.1.15,2013-03-16 12:45:00,
2013-03-16 07:51:00,57.9,45.0,29.40,SSW,197,9.0,11.0,62,0.00,,,0.00,Wunderground v.1.15,2013-03-16 12:51:00,
2013-03-16 07:56:00,58.0,45.0,29.40,SW,225,17.0,18.0,62,0.00,,,0.00,Wunderground v.1.15,2013-03-16 12:56:00,
2013-03-16 08:01:00,58.0,45.0,29.40,SSW,197,12.0,17.0,62,0.00,,,0.00,Wunderground v.1.15,2013-03-16 13:01:00,
2013-03-16 08:06:00,58.1,45.1,29.41,SW,214,10.0,19.0,62,0.00,,,0.00,Wunderground v.1.15,2013-03-16 13:06:00,
2013-03-16 08:11:00,58.3,45.3,29.41,WSW,246,11.0,15.0,62,0.00,,,0.00,Wunderground v.1.15,2013-03-16 13:11:00,
2013-03-16 08:16:00,58.4,45.4,29.41,SW,217,14.0,17.0,62,0.00,,,0.00,Wunderground v.1.15,2013-03-16 13:16:00,
2013-03-16 08:21:00,58.6,45.6,29.41,SW,217,9.0,11.0,62,0.00,,,0.00,Wunderground v.1.15,2013-03-16 13:21:00,
2013-03-16 08:26:00,58.7,45.7,29.41,SSW,212,10.0,20.0,62,0.00,,,0.00,Wunderground v.1.15,2013-03-16 13:26:00,
2013-03-16 08:30:00,58.8,45.8,29.42,SW,233,14.0,15.0,62,0.00,,,0.00,Wunderground v.1.15,2013-03-16 13:30:00,
2013-03-16 08:36:00,58.8,45.8,29.42,SW,217,12.0,23.0,62,0.00,,,0.00,Wunderground v.1.15,2013-03-16 13:36:00,
2013-03-16 08:40:00,58.8,46.2,29.42,SW,222,15.0,19.0,63,0.00,,,0.00,Wunderground v.1.15,2013-03-16 13:40:00,
2013-03-16 08:45:00,58.8,46.2,29.42,West,262,11.0,21.0,63,0.00,,,0.00,Wunderground v.1.15,2013-03-16 13:45:00,
2013-03-16 08:50:00,58.8,46.2,29.42,SSW,212,10.0,17.0,63,0.00,,,0.00,Wunderground v.1.15,2013-03-16 13:50:00,
2013-03-16 08:56:00,58.8,46.2,29.42,SW,221,16.0,21.0,63,0.00,,,0.00,Wunderground v.1.15,2013-03-16 13:56:00,
2013-03-16 09:01:00,58.9,46.3,29.42,SW,219,10.0,17.0,63,0.00,,,0.00,Wunderground v.1.15,2013-03-16 14:01:00,
2013-03-16 09:05:00,59.1,46.5,29.42,SW,225,7.0,17.0,63,0.00,,,0.00,Wunderground v.1.15,2013-03-16 14:05:00,
2013-03-16 09:10:00,59.1,46.5,29.42,WSW,256,9.0,16.0,63,0.00,,,0.00,Wunderground v.1.15,2013-03-16 14:10:00,
2013-03-16 09:15:00,59.4,46.8,29.42,SSW,200,15.0,20.0,63,0.00,,,0.00,Wunderground v.1.15,2013-03-16 14:15:00,
2013-03-16 09:20:00,59.5,46.9,29.42,WSW,239,14.0,18.0,63,0.00,,,0.00,Wunderground v.1.15,2013-03-16 14:20:00,
2013-03-16 09:26:00,59.5,46.9,29.43,SW,217,8.0,19.0,63,0.00,,,0.00,Wunderground v.1.15,2013-03-16 14:26:00,
2013-03-16 09:31:00,59.6,47.0,29.43,SW,231,13.0,18.0,63,0.00,,,0.00,Wunderground v.1.15,2013-03-16 14:31:00,
2013-03-16 09:36:00,59.8,47.2,29.43,SW,234,16.0,22.0,63,0.00,,,0.00,Wunderground v.1.15,2013-03-16 14:36:00,
2013-03-16 09:41:00,60.0,47.4,29.43,SW,217,11.0,20.0,63,0.00,,,0.00,Wunderground v.1.15,2013-03-16 14:41:00,
2013-03-16 09:46:00,60.1,47.0,29.43,SW,221,17.0,20.0,62,0.00,,,0.00,Wunderground v.1.15,2013-03-16 14:46:00,
2013-03-16 09:51:00,60.3,47.6,29.43,SSE,163,11.0,12.0,63,0.00,,,0.00,Wunderground v.1.15,2013-03-16 14:51:00,
2013-03-16 09:56:00,60.5,47.4,29.43,SW,223,13.0,20.0,62,0.00,,,0.00,Wunderground v.1.15,2013-03-16 14:56:00,
2013-03-16 10:01:00,60.7,47.6,29.43,SW,229,16.0,16.0,62,0.00,,,0.00,Wunderground v.1.15,2013-03-16 15:01:00,
2013-03-16 10:06:00,61.1,48.0,29.43,WSW,248,14.0,18.0,62,0.00,,,0.00,Wunderground v.1.15,2013-03-16 15:06:00,
2013-03-16 10:12:00,61.5,47.9,29.44,SW,236,6.0,12.0,61,0.00,,,0.00,Wunderground v.1.15,2013-03-16 15:12:00,
2013-03-16 10:17:00,61.4,47.8,29.44,WSW,245,14.0,17.0,61,0.00,,,0.00,Wunderground v.1.15,2013-03-16 15:17:00,
2013-03-16 10:22:00,61.1,47.5,29.44,SW,215,13.0,19.0,61,0.00,,,0.00,Wunderground v.1.15,2013-03-16 15:22:00,
2013-03-16 10:27:00,61.4,48.3,29.44,WSW,245,15.0,19.0,62,0.00,,,0.00,Wunderground v.1.15,2013-03-16 15:27:00,
2013-03-16 10:32:00,61.3,47.7,29.44,SSW,205,8.0,18.0,61,0.00,,,0.00,Wunderground v.1.15,2013-03-16 15:32:00,
2013-03-16 10:37:00,61.6,48.0,29.44,WSW,242,9.0,20.0,61,0.00,,,0.00,Wunderground v.1.15,2013-03-16 15:37:00,
2013-03-16 10:42:00,61.9,47.9,29.44,WSW,256,9.0,15.0,60,0.00,,,0.00,Wunderground v.1.15,2013-03-16 15:42:00,
2013-03-16 10:47:00,62.2,48.1,29.45,WNW,284,7.0,18.0,60,0.00,,,0.00,Wunderground v.1.15,2013-03-16 15:47:00,
2013-03-16 10:52:00,62.4,47.9,29.45,West,281,6.0,15.0,59,0.00,,,0.00,Wunderground v.1.15,2013-03-16 15:52:00,
2013-03-16 10:57:00,62.5,48.0,29.45,SW,231,13.0,15.0,59,0.00,,,0.00,Wunderground v.1.15,2013-03-16 15:57:00,
2013-03-16 11:02:00,62.8,48.3,29.45,WSW,253,9.0,15.0,59,0.00,,,0.00,Wunderground v.1.15,2013-03-16 16:02:00,
2013-03-16 11:08:00,63.0,48.0,29.45,West,269,9.0,16.0,58,0.00,,,0.00,Wunderground v.1.15,2013-03-16 16:08:00,
2013-03-16 11:13:00,62.7,47.7,29.45,SW,228,4.0,14.0,58,0.00,,,0.00,Wunderground v.1.15,2013-03-16 16:13:00,
2013-03-16 11:18:00,62.8,47.8,29.45,SW,217,10.0,19.0,58,0.00,,,0.00,Wunderground v.1.15,2013-03-16 16:18:00,
2013-03-16 11:22:00,63.4,48.4,29.45,WSW,245,12.0,13.0,58,0.00,,,0.00,Wunderground v.1.15,2013-03-16 16:22:00,
2013-03-16 11:27:00,63.2,48.2,29.45,WNW,284,7.0,17.0,58,0.00,,,0.00,Wunderground v.1.15,2013-03-16 16:27:00,
2013-03-16 11:33:00,63.4,48.4,29.46,SSW,198,5.0,13.0,58,0.00,,,0.00,Wunderground v.1.15,2013-03-16 16:33:00,
2013-03-16 11:38:00,63.4,48.8,29.45,SW,229,9.0,15.0,59,0.00,,,0.00,Wunderground v.1.15,2013-03-16 16:38:00,
2013-03-16 11:43:00,63.5,48.5,29.46,WNW,297,10.0,16.0,58,0.00,,,0.00,Wunderground v.1.15,2013-03-16 16:43:00,
2013-03-16 11:48:00,63.5,48.5,29.47,West,279,13.0,17.0,58,0.00,,,0.00,Wunderground v.1.15,2013-03-16 16:48:00,
2013-03-16 11:53:00,63.5,48.9,29.47,WSW,256,9.0,16.0,59,0.00,,,0.00,Wunderground v.1.15,2013-03-16 16:53:00,
2013-03-16 11:58:00,63.8,48.7,29.47,SW,236,11.0,16.0,58,0.00,,,0.00,Wunderground v.1.15,2013-03-16 16:58:00,
2013-03-16 12:03:00,63.4,48.8,29.48,WSW,249,7.0,14.0,59,0.00,,,0.00,Wunderground v.1.15,2013-03-16 17:03:00,
2013-03-16 12:08:00,63.3,48.3,29.47,West,272,6.0,14.0,58,0.00,,,0.00,Wunderground v.1.15,2013-03-16 17:08:00,
2013-03-16 12:13:00,63.4,48.4,29.47,WSW,243,6.0,9.0,58,0.00,,,0.00,Wunderground v.1.15,2013-03-16 17:13:00,
2013-03-16 12:18:00,63.3,47.8,29.48,WSW,253,3.0,15.0,57,0.00,,,0.00,Wunderground v.1.15,2013-03-16 17:18:00,
2013-03-16 12:23:00,63.4,48.4,29.48,WNW,284,3.0,12.0,58,0.00,,,0.00,Wunderground v.1.15,2013-03-16 17:23:00,
2013-03-16 12:28:00,63.5,48.5,29.48,West,277,7.0,12.0,58,0.00,,,0.00,Wunderground v.1.15,2013-03-16 17:28:00,
2013-03-16 12:33:00,63.4,47.9,29.49,WSW,254,6.0,12.0,57,0.00,,,0.00,Wunderground v.1.15,2013-03-16 17:33:00,
2013-03-16 12:38:00,63.9,49.3,29.49,West,275,2.0,12.0,59,0.00,,,0.00,Wunderground v.1.15,2013-03-16 17:38:00,
2013-03-16 12:43:00,64.3,48.3,29.48,WNW,287,3.0,13.0,56,0.00,,,0.00,Wunderground v.1.15,2013-03-16 17:43:00,
2013-03-16 12:48:00,64.0,48.5,29.48,WNW,282,7.0,13.0,57,0.00,,,0.00,Wunderground v.1.15,2013-03-16 17:48:00,
2013-03-16 12:53:00,64.0,48.0,29.48,WNW,300,9.0,12.0,56,0.00,,,0.00,Wunderground v.1.15,2013-03-16 17:53:00,
2013-03-16 12:58:00,63.9,47.9,29.49,NW,309,4.0,12.0,56,0.00,,,0.00,Wunderground v.1.15,2013-03-16 17:58:00,
2013-03-16 13:03:00,64.2,48.2,29.49,WNW,284,5.0,12.0,56,0.00,,,0.00,Wunderground v.1.15,2013-03-16 18:03:00,
2013-03-16 13:08:00,63.9,47.9,29.48,West,270,6.0,14.0,56,0.00,,,0.00,Wunderground v.1.15,2013-03-16 18:08:00,
2013-03-16 13:13:00,64.1,48.1,29.48,WNW,291,4.0,10.0,56,0.00,,,0.00,Wunderground v.1.15,2013-03-16 18:13:00,
2013-03-16 13:18:00,64.3,48.7,29.48,NW,311,3.0,10.0,57,0.00,,,0.00,Wunderground v.1.15,2013-03-16 18:18:00,
2013-03-16 13:23:00,64.3,48.7,29.48,NW,305,9.0,11.0,57,0.00,,,0.00,Wunderground v.1.15,2013-03-16 18:23:00,
2013-03-16 13:28:00,64.2,48.6,29.48,North,353,10.0,15.0,57,0.00,,,0.00,Wunderground v.1.15,2013-03-16 18:28:00,
2013-03-16 13:33:00,64.1,48.5,29.48,WNW,297,10.0,14.0,57,0.00,,,0.00,Wunderground v.1.15,2013-03-16 18:33:00,
2013-03-16 13:38:00,63.9,47.9,29.48,NW,316,8.0,16.0,56,0.00,,,0.00,Wunderground v.1.15,2013-03-16 18:38:00,
2013-03-16 13:43:00,63.3,47.8,29.48,West,270,12.0,14.0,57,0.00,,,0.00,Wunderground v.1.15,2013-03-16 18:43:00,
2013-03-16 13:48:00,63.3,47.8,29.49,WNW,293,4.0,14.0,57,0.00,,,0.00,Wunderground v.1.15,2013-03-16 18:48:00,
2013-03-16 13:53:00,63.4,47.4,29.49,NW,313,14.0,14.0,56,0.00,,,0.00,Wunderground v.1.15,2013-03-16 18:53:00,
2013-03-16 13:58:00,62.6,47.1,29.49,NW,311,8.0,16.0,57,0.00,,,0.00,Wunderground v.1.15,2013-03-16 18:58:00,
2013-03-16 14:03:00,62.4,47.0,29.48,NNW,327,6.0,16.0,57,0.00,,,0.00,Wunderground v.1.15,2013-03-16 19:03:00,
2013-03-16 14:08:00,61.6,46.7,29.49,WSW,246,9.0,16.0,58,0.00,,,0.00,Wunderground v.1.15,2013-03-16 19:08:00,
2013-03-16 14:13:00,61.1,46.2,29.49,NW,314,14.0,15.0,58,0.00,,,0.00,Wunderground v.1.15,2013-03-16 19:13:00,
2013-03-16 14:18:00,60.3,45.9,29.49,NW,318,12.0,20.0,59,0.00,,,0.00,Wunderground v.1.15,2013-03-16 19:18:00,
2013-03-16 14:23:00,59.8,45.4,29.48,NW,313,11.0,16.0,59,0.00,,,0.00,Wunderground v.1.15,2013-03-16 19:23:00,
2013-03-16 14:28:00,60.0,46.1,29.48,NW,324,6.0,16.0,60,0.00,,,0.00,Wunderground v.1.15,2013-03-16 19:28:00,
2013-03-16 14:33:00,59.8,45.9,29.49,West,271,11.0,15.0,60,0.00,,,0.00,Wunderground v.1.15,2013-03-16 19:33:00,
2013-03-16 14:38:00,59.6,46.1,29.49,NW,318,8.0,15.0,61,0.00,,,0.00,Wunderground v.1.15,2013-03-16 19:38:00,
2013-03-16 14:43:00,59.6,45.2,29.48,WSW,239,12.0,14.0,59,0.00,,,0.00,Wunderground v.1.15,2013-03-16 19:43:00,
2013-03-16 14:48:00,59.9,45.5,29.48,WNW,283,4.0,15.0,59,0.00,,,0.00,Wunderground v.1.15,2013-03-16 19:48:00,
2013-03-16 14:53:00,59.7,45.8,29.49,NW,304,8.0,13.0,60,0.00,,,0.00,Wunderground v.1.15,2013-03-16 19:53:00,
2013-03-16 14:58:00,59.9,46.0,29.49,WNW,300,4.0,17.0,60,0.00,,,0.00,Wunderground v.1.15,2013-03-16 19:58:00,
2013-03-16 15:04:00,59.5,45.2,29.49,NW,304,11.0,18.0,59,0.00,,,0.00,Wunderground v.1.15,2013-03-16 20:04:00,
2013-03-16 15:09:00,59.3,45.0,29.49,West,270,10.0,18.0,59,0.00,,,0.00,Wunderground v.1.15,2013-03-16 20:09:00,
2013-03-16 15:14:00,59.1,44.8,29.49,NW,316,13.0,16.0,59,0.00,,,0.00,Wunderground v.1.15,2013-03-16 20:14:00,
2013-03-16 15:19:00,58.8,44.5,29.49,NW,320,9.0,16.0,59,0.00,,,0.00,Wunderground v.1.15,2013-03-16 20:19:00,
2013-03-16 15:24:00,58.5,44.2,29.50,WNW,285,9.0,12.0,59,0.00,,,0.00,Wunderground v.1.15,2013-03-16 20:24:00,
2013-03-16 15:29:00,58.3,44.5,29.50,NW,314,4.0,16.0,60,0.00,,,0.00,Wunderground v.1.15,2013-03-16 20:29:00,
2013-03-16 15:34:00,57.4,43.6,29.51,WSW,246,12.0,18.0,60,0.00,,,0.00,Wunderground v.1.15,2013-03-16 20:34:00,
2013-03-16 15:39:00,57.0,43.7,29.51,NW,318,13.0,18.0,61,0.00,,,0.00,Wunderground v.1.15,2013-03-16 20:39:00,
2013-03-16 15:44:00,56.3,43.0,29.51,WNW,285,11.0,13.0,61,0.00,,,0.00,Wunderground v.1.15,2013-03-16 20:44:00,
2013-03-16 15:49:00,55.9,43.5,29.52,NNW,330,12.0,13.0,63,0.00,,,0.00,Wunderground v.1.15,2013-03-16 20:49:00,
2013-03-16 15:54:00,55.3,42.9,29.52,WNW,298,8.0,19.0,63,0.00,,,0.00,Wunderground v.1.15,2013-03-16 20:54:00,
2013-03-16 15:59:00,54.9,42.5,29.52,NW,304,9.0,19.0,63,0.00,,,0.00,Wunderground v.1.15,2013-03-16 20:59:00,
2013-03-16 16:04:00,54.8,42.4,29.53,WNW,290,11.0,17.0,63,0.00,,,0.00,Wunderground v.1.15,2013-03-16 21:04:00,
2013-03-16 16:09:00,54.7,42.3,29.53,WNW,298,5.0,17.0,63,0.00,,,0.00,Wunderground v.1.15,2013-03-16 21:09:00,
2013-03-16 16:14:00,54.5,42.6,29.53,NW,311,12.0,13.0,64,0.00,,,0.00,Wunderground v.1.15,2013-03-16 21:14:00,
2013-03-16 16:19:00,54.6,42.7,29.53,West,259,12.0,14.0,64,0.00,,,0.00,Wunderground v.1.15,2013-03-16 21:19:00,
2013-03-16 16:24:00,54.3,42.0,29.53,NNW,344,9.0,14.0,63,0.00,,,0.00,Wunderground v.1.15,2013-03-16 21:24:00,
2013-03-16 16:29:00,53.5,41.6,29.53,NW,317,12.0,16.0,64,0.00,,,0.00,Wunderground v.1.15,2013-03-16 21:29:00,
2013-03-16 16:34:00,53.6,41.3,29.54,NW,315,13.0,14.0,63,0.00,,,0.00,Wunderground v.1.15,2013-03-16 21:34:00,
2013-03-16 16:39:00,52.9,41.0,29.54,NNW,335,7.0,20.0,64,0.00,,,0.00,Wunderground v.1.15,2013-03-16 21:39:00,
2013-03-16 16:44:00,52.1,40.7,29.54,NNW,347,14.0,18.0,65,0.00,,,0.00,Wunderground v.1.15,2013-03-16 21:44:00,
2013-03-16 16:49:00,51.9,40.9,29.53,NW,321,13.0,18.0,66,0.00,,,0.00,Wunderground v.1.15,2013-03-16 21:49:00,
2013-03-16 16:54:00,51.8,40.8,29.53,NW,319,9.0,15.0,66,0.00,,,0.00,Wunderground v.1.15,2013-03-16 21:54:00,
2013-03-16 16:59:00,51.8,40.8,29.53,WNW,300,10.0,15.0,66,0.00,,,0.00,Wunderground v.1.15,2013-03-16 21:59:00,
2013-03-16 17:04:00,51.3,40.3,29.53,NW,317,10.0,16.0,66,0.00,,,0.00,Wunderground v.1.15,2013-03-16 22:04:00,
2013-03-16 17:09:00,51.2,40.6,29.52,NW,320,5.0,16.0,67,0.00,,,0.00,Wunderground v.1.15,2013-03-16 22:09:00,
2013-03-16 17:14:00,51.0,40.4,29.51,NNW,343,6.0,12.0,67,0.00,,,0.00,Wunderground v.1.15,2013-03-16 22:14:00,
2013-03-16 17:19:00,51.0,40.4,29.51,NNW,345,6.0,12.0,67,0.00,,,0.00,Wunderground v.1.15,2013-03-16 22:19:00,
2013-03-16 17:24:00,51.2,40.2,29.53,North,356,11.0,11.0,66,0.00,,,0.00,Wunderground v.1.15,2013-03-16 22:24:00,
2013-03-16 17:29:00,51.1,40.1,29.52,NNW,335,8.0,14.0,66,0.00,,,0.00,Wunderground v.1.15,2013-03-16 22:29:00,
2013-03-16 17:34:00,50.9,39.9,29.52,NW,319,8.0,12.0,66,0.00,,,0.00,Wunderground v.1.15,2013-03-16 22:34:00,
2013-03-16 17:39:00,51.0,40.4,29.53,WNW,303,7.0,12.0,67,0.00,,,0.00,Wunderground v.1.15,2013-03-16 22:39:00,
2013-03-16 17:44:00,50.8,40.2,29.53,NNE,13,9.0,14.0,67,0.00,,,0.00,Wunderground v.1.15,2013-03-16 22:44:00,
2013-03-16 17:49:00,50.4,39.9,29.54,NNE,23,9.0,18.0,67,0.00,,,0.00,Wunderground v.1.15,2013-03-16 22:49:00,
2013-03-16 17:54:00,50.1,39.9,29.55,North,8,8.0,13.0,68,0.00,,,0.00,Wunderground v.1.15,2013-03-16 22:54:00,
2013-03-16 17:59:00,50.0,39.5,29.55,North,360,9.0,13.0,67,0.00,,,0.00,Wunderground v.1.15,2013-03-16 22:59:00,
2013-03-16 18:04:00,49.7,39.6,29.55,NNW,337,8.0,14.0,68,0.00,,,0.00,Wunderground v.1.15,2013-03-16 23:04:00,
2013-03-16 18:09:00,49.5,39.4,29.56,NNW,340,10.0,14.0,68,0.00,,,0.00,Wunderground v.1.15,2013-03-16 23:09:00,
2013-03-16 18:14:00,49.2,38.7,29.56,NNW,330,8.0,15.0,67,0.00,,,0.00,Wunderground v.1.15,2013-03-16 23:14:00,
2013-03-16 18:19:00,49.0,38.5,29.56,NNW,331,11.0,15.0,67,0.00,,,0.00,Wunderground v.1.15,2013-03-16 23:19:00,
2013-03-16 18:24:00,48.8,38.3,29.57,NNE,29,6.0,14.0,67,0.00,,,0.00,Wunderground v.1.15,2013-03-16 23:24:00,
2013-03-16 18:29:00,48.5,38.4,29.57,NNE,30,9.0,14.0,68,0.00,,,0.00,Wunderground v.1.15,2013-03-16 23:29:00,
2013-03-16 18:34:00,48.4,38.3,29.57,North,349,9.0,16.0,68,0.00,,,0.00,Wunderground v.1.15,2013-03-16 23:34:00,
2013-03-16 18:39:00,48.3,38.2,29.57,NNE,15,9.0,16.0,68,0.00,,,0.00,Wunderground v.1.15,2013-03-16 23:39:00,
2013-03-16 18:44:00,48.2,38.1,29.57,NNW,347,4.0,12.0,68,0.00,,,0.00,Wunderground v.1.15,2013-03-16 23:44:00,
2013-03-16 18:49:00,48.1,38.4,29.57,NE,39,10.0,12.0,69,0.00,,,0.00,Wunderground v.1.15,2013-03-16 23:49:00,
2013-03-16 18:54:00,48.0,38.3,29.56,NNE,33,6.0,12.0,69,0.00,,,0.00,Wunderground v.1.15,2013-03-16 23:54:00,
2013-03-16 18:59:00,47.8,38.5,29.56,NNW,342,10.0,12.0,70,0.00,,,0.00,Wunderground v.1.15,2013-03-16 23:59:00,
2013-03-16 19:04:00,47.7,38.4,29.56,NE,37,5.0,9.0,70,0.00,,,0.00,Wunderground v.1.15,2013-03-17 00:04:00,
2013-03-16 19:09:00,47.5,38.2,29.56,NNE,14,10.0,13.0,70,0.00,,,0.00,Wunderground v.1.15,2013-03-17 00:09:00,
2013-03-16 19:14:00,47.2,37.9,29.56,NNW,335,7.0,13.0,70,0.00,,,0.00,Wunderground v.1.15,2013-03-17 00:14:00,
2013-03-16 19:19:00,47.0,38.1,29.56,NE,48,8.0,13.0,71,0.00,,,0.00,Wunderground v.1.15,2013-03-17 00:19:00,
2013-03-16 19:24:00,46.8,37.9,29.56,NNE,13,7.0,14.0,71,0.00,,,0.00,Wunderground v.1.15,2013-03-17 00:24:00,
2013-03-16 19:29:00,46.6,38.1,29.56,NNW,338,6.0,14.0,72,0.00,,,0.00,Wunderground v.1.15,2013-03-17 00:29:00,
2013-03-16 19:34:00,46.5,38.0,29.57,NNE,16,3.0,11.0,72,0.00,,,0.00,Wunderground v.1.15,2013-03-17 00:34:00,
2013-03-16 19:39:00,46.4,38.2,29.56,NNW,345,3.0,12.0,73,0.00,,,0.00,Wunderground v.1.15,2013-03-17 00:39:00,
2013-03-16 19:44:00,46.3,38.1,29.56,NE,34,4.0,12.0,73,0.00,,,0.00,Wunderground v.1.15,2013-03-17 00:44:00,
2013-03-16 19:49:00,46.2,37.7,29.55,NE,51,8.0,14.0,72,0.00,,,0.00,Wunderground v.1.15,2013-03-17 00:49:00,
2013-03-16 19:54:00,46.1,37.6,29.57,NE,49,9.0,13.0,72,0.00,,,0.00,Wunderground v.1.15,2013-03-17 00:54:00,
2013-03-16 19:59:00,46.0,37.5,29.57,NE,36,8.0,13.0,72,0.00,,,0.00,Wunderground v.1.15,2013-03-17 00:59:00,
2013-03-16 20:04:00,45.9,37.7,29.58,NNW,332,6.0,11.0,73,0.00,,,0.00,Wunderground v.1.15,2013-03-17 01:04:00,
2013-03-16 20:09:00,45.7,37.2,29.58,NNE,24,12.0,14.0,72,0.00,,,0.00,Wunderground v.1.15,2013-03-17 01:09:00,
2013-03-16 20:14:00,45.6,37.1,29.59,NW,326,10.0,12.0,72,0.00,,,0.00,Wunderground v.1.15,2013-03-17 01:14:00,
2013-03-16 20:19:00,45.5,37.0,29.60,NW,323,8.0,12.0,72,0.00,,,0.00,Wunderground v.1.15,2013-03-17 01:19:00,
2013-03-16 20:24:00,45.3,37.2,29.59,NNE,13,11.0,13.0,73,0.00,,,0.00,Wunderground v.1.15,2013-03-17 01:24:00,
2013-03-16 20:29:00,45.1,37.0,29.59,North,349,5.0,13.0,73,0.00,,,0.00,Wunderground v.1.15,2013-03-17 01:29:00,
2013-03-16 20:34:00,45.0,37.2,29.59,NE,46,5.0,12.0,74,0.00,,,0.00,Wunderground v.1.15,2013-03-17 01:34:00,
2013-03-16 20:39:00,44.9,37.1,29.58,NNE,20,6.0,12.0,74,0.00,,,0.00,Wunderground v.1.15,2013-03-17 01:39:00,
2013-03-16 20:44:00,44.7,36.9,29.58,North,6,4.0,13.0,74,0.00,,,0.00,Wunderground v.1.15,2013-03-17 01:44:00,
2013-03-16 20:49:00,44.6,36.8,29.58,North,6,8.0,13.0,74,0.00,,,0.00,Wunderground v.1.15,2013-03-17 01:49:00,
2013-03-16 20:54:00,44.5,37.1,29.59,NNE,26,6.0,16.0,75,0.00,,,0.00,Wunderground v.1.15,2013-03-17 01:54:00,
2013-03-16 20:59:00,44.3,36.9,29.59,NW,319,5.0,16.0,75,0.00,,,0.00,Wunderground v.1.15,2013-03-17 01:59:00,
2013-03-16 21:04:00,44.3,37.2,29.59,North,353,9.0,12.0,76,0.00,,,0.00,Wunderground v.1.15,2013-03-17 02:04:00,
2013-03-16 21:09:00,44.1,37.0,29.60,NW,317,5.0,13.0,76,0.00,,,0.00,Wunderground v.1.15,2013-03-17 02:09:00,
2013-03-16 21:14:00,44.1,37.0,29.61,NNE,28,6.0,9.0,76,0.00,,,0.00,Wunderground v.1.15,2013-03-17 02:14:00,
2013-03-16 21:19:00,44.0,36.9,29.61,NNW,343,5.0,10.0,76,0.00,,,0.00,Wunderground v.1.15,2013-03-17 02:19:00,
2013-03-16 21:24:00,43.9,36.8,29.61,NNE,20,4.0,10.0,76,0.00,,,0.00,Wunderground v.1.15,2013-03-17 02:24:00,
2013-03-16 21:29:00,43.8,36.7,29.61,NNE,26,5.0,13.0,76,0.00,,,0.00,Wunderground v.1.15,2013-03-17 02:29:00,
2013-03-16 21:35:00,43.7,37.0,29.61,North,11,8.0,11.0,77,0.00,,,0.00,Wunderground v.1.15,2013-03-17 02:35:00,
2013-03-16 21:40:00,43.5,36.8,29.61,NNE,29,9.0,12.0,77,0.00,,,0.00,Wunderground v.1.15,2013-03-17 02:40:00,
2013-03-16 21:45:00,43.4,37.0,29.60,North,358,9.0,15.0,78,0.00,,,0.00,Wunderground v.1.15,2013-03-17 02:45:00,
2013-03-16 21:50:00,43.2,36.8,29.60,NE,36,3.0,15.0,78,0.00,,,0.00,Wunderground v.1.15,2013-03-17 02:50:00,
2013-03-16 21:54:00,43.0,36.6,29.60,NE,46,7.0,14.0,78,0.00,,,0.00,Wunderground v.1.15,2013-03-17 02:54:00,
2013-03-16 22:00:00,42.9,36.8,29.61,NNE,26,6.0,14.0,79,0.00,,,0.00,Wunderground v.1.15,2013-03-17 03:00:00,
2013-03-16 22:05:00,42.8,36.7,29.61,NNE,16,7.0,9.0,79,0.00,,,0.00,Wunderground v.1.15,2013-03-17 03:05:00,
2013-03-16 22:10:00,42.7,36.6,29.60,NNE,32,11.0,11.0,79,0.00,,,0.00,Wunderground v.1.15,2013-03-17 03:10:00,
2013-03-16 22:15:00,42.5,36.4,29.61,NNW,347,7.0,12.0,79,0.00,,,0.00,Wunderground v.1.15,2013-03-17 03:15:00,
2013-03-16 22:20:00,42.5,36.4,29.62,NNE,19,8.0,12.0,79,0.00,,,0.00,Wunderground v.1.15,2013-03-17 03:20:00,
2013-03-16 22:25:00,42.4,36.3,29.62,NNE,27,7.0,13.0,79,0.00,,,0.00,Wunderground v.1.15,2013-03-17 03:25:00,
2013-03-16 22:30:00,42.3,36.6,29.61,NE,50,6.0,13.0,80,0.00,,,0.00,Wunderground v.1.15,2013-03-17 03:30:00,
2013-03-16 22:35:00,42.1,36.1,29.61,NNE,29,7.0,13.0,79,0.00,,,0.00,Wunderground v.1.15,2013-03-17 03:35:00,
2013-03-16 22:40:00,41.9,36.2,29.60,ENE,65,8.0,13.0,80,0.00,,,0.00,Wunderground v.1.15,2013-03-17 03:40:00,
2013-03-16 22:45:00,41.8,36.1,29.60,NE,44,5.0,12.0,80,0.00,,,0.00,Wunderground v.1.15,2013-03-17 03:45:00,
2013-03-16 22:50:00,41.8,36.1,29.60,NE,47,2.0,12.0,80,0.00,,,0.00,Wunderground v.1.15,2013-03-17 03:50:00,
2013-03-16 22:55:00,41.7,35.7,29.59,NNE,22,5.0,15.0,79,0.00,,,0.00,Wunderground v.1.15,2013-03-17 03:55:00,
2013-03-16 23:00:00,41.6,35.6,29.60,NE,45,11.0,11.0,79,0.00,,,0.00,Wunderground v.1.15,2013-03-17 04:00:00,
2013-03-16 23:05:00,41.5,35.8,29.59,North,356,7.0,12.0,80,0.00,,,0.00,Wunderground v.1.15,2013-03-17 04:05:00,
2013-03-16 23:10:00,41.5,35.8,29.59,East,80,3.0,6.0,80,0.00,,,0.00,Wunderground v.1.15,2013-03-17 04:10:00,
2013-03-16 23:15:00,41.4,35.4,29.59,NE,47,5.0,12.0,79,0.00,,,0.00,Wunderground v.1.15,2013-03-17 04:15:00,
2013-03-16 23:20:00,41.3,35.3,29.59,NE,44,12.0,13.0,79,0.00,,,0.00,Wunderground v.1.15,2013-03-17 04:20:00,
2013-03-16 23:26:00,41.3,35.3,29.60,NNE,20,6.0,13.0,79,0.00,,,0.00,Wunderground v.1.15,2013-03-17 04:26:00,
2013-03-16 23:31:00,41.2,35.2,29.60,North,9,8.0,8.0,79,0.00,,,0.00,Wunderground v.1.15,2013-03-17 04:31:00,
2013-03-16 23:36:00,41.1,35.1,29.60,NE,53,6.0,14.0,79,0.00,,,0.00,Wunderground v.1.15,2013-03-17 04:36:00,
2013-03-16 23:41:00,41.1,35.1,29.60,NE,40,8.0,10.0,79,0.00,,,0.00,Wunderground v.1.15,2013-03-17 04:41:00,
2013-03-16 23:46:00,41.1,35.4,29.59,NE,37,5.0,12.0,80,0.00,,,0.00,Wunderground v.1.15,2013-03-17 04:46:00,
2013-03-16 23:51:00,41.1,35.1,29.60,NNE,26,6.0,10.0,79,0.00,,,0.00,Wunderground v.1.15,2013-03-17 04:51:00,
2013-03-16 23:56:00,41.0,35.0,29.60,NE,53,6.0,10.0,79,0.00,,,0.00,Wunderground v.1.15,2013-03-17 04:56:00,